Погода в Силвассе

Индия     20°16′50″N   73°00′03″E
В апреле 2022 года жителям России запретили посещать сайт meteo.paraplan.net по решению Генеральной прокуратуры. Аудитория сайта уменьшилась в 10 раз. Владельцы сайта не видят смысла в поддержке погодного сервера в таких условиях. Сайт будет закрыт в октябре.
темп.,
°C
ветер,
м/с
пор.,
м/с
влажн.,
%
обл.,
%
осадки,
мм/ч
давл.,
гПа
погр.,
м
29 сентября, чт
чт2923:30+24ю22906 0.1 100838
02:30+23ююв22937 0.2 100722
05:30+23ююв119454 0.8 100718
08:30+26ююв22865 0.0 1009219
11:30+29з217022 0.3 1009904
14:30+30зсз336930 2.3 10061078
17:30+28зсз34805 2.9 1007169
20:30+25зюз11865 0.6 100913
30 сентября, пт
пт3023:30+25юз12905 0.9 100927
02:30+24ююв11922 0.1 100818
05:30+23ююв22925 0.1 100824
08:30+26ю12861 0.9 1010208
11:30+29зсз337422 3.2 1010953
14:30+30сз447137 0.3 10071062
17:30+27зсз34825 0.3 1007250
20:30+25юз22874 0.1 100940
1 октября, сб
сб123:30+24ююз22914 0.1 100940
02:30+23ю22941 1.6 100848
05:30+23ю22940 2.1 100836
08:30+26ююз11861 0.2 1010254
11:30+29зсз227165 0.5 10101091
14:30+29зсз446947 0.6 1007965
17:30+27зсз34792 0.6 1007251
20:30+24ююз128769 0.0 100922
2 октября, вс
вс223:30+24ююв22920 0.1 100925
02:30+23ююв229513 0.1 100832
05:30+23ююв229633 0.6 100834
08:30+25ю228817 0.1 1010239
11:30+28з337737 3.3 1010879
14:30+29з547042 1.6 10071159
17:30+27зюз34800 1.8 1007262
20:30+23ю22830 0.0 100924
3 октября, пн
пн323:30+22ююв22880 0.0 100930
02:30+22юв22900 0.0 100827
05:30+22юв229220 0.1 100945
08:30+24юв128895 0.0 1010106
11:30+28зюз227372 0.1 1010714
14:30+29зсз326688 0.1 10071144
17:30+26зсз358192 0.1 1007229
20:30+24юз018288 0.0 100913